Year,Month,Day,Hour,Minute,Value (Times are PST for temperature in C)
2014,07,26,00,00,12.80
2014,07,26,00,01,12.70
2014,07,26,00,02,12.70
2014,07,26,00,03,12.70
2014,07,26,00,04,12.70
2014,07,26,00,05,12.70
2014,07,26,00,06,12.70
2014,07,26,00,07,12.70
2014,07,26,00,08,12.70
2014,07,26,00,09,12.60
2014,07,26,00,10,12.60
2014,07,26,00,11,12.60
2014,07,26,00,12,12.60
2014,07,26,00,13,12.60
2014,07,26,00,14,12.60
2014,07,26,00,15,12.60
2014,07,26,00,16,12.60
2014,07,26,00,17,12.50
2014,07,26,00,18,12.50
2014,07,26,00,19,12.50
2014,07,26,00,20,12.40
2014,07,26,00,21,12.40
2014,07,26,00,22,12.50
2014,07,26,00,23,12.50
2014,07,26,00,24,12.50
2014,07,26,00,25,12.60
2014,07,26,00,26,12.60
2014,07,26,00,27,12.60
2014,07,26,00,28,12.70
2014,07,26,00,29,12.70
2014,07,26,00,30,12.70
2014,07,26,00,31,12.70
2014,07,26,00,32,12.70
2014,07,26,00,33,12.80
2014,07,26,00,34,12.80
2014,07,26,00,35,12.80
2014,07,26,00,36,12.70
2014,07,26,00,37,12.70
2014,07,26,00,38,12.70
2014,07,26,00,39,12.60
2014,07,26,00,40,12.60
2014,07,26,00,41,12.60
2014,07,26,00,42,12.60
2014,07,26,00,43,12.60
2014,07,26,00,44,12.60
2014,07,26,00,45,12.60
2014,07,26,00,46,12.50
2014,07,26,00,47,12.50
2014,07,26,00,48,12.50
2014,07,26,00,49,12.50
2014,07,26,00,50,12.50
2014,07,26,00,51,12.60
2014,07,26,00,52,12.50
2014,07,26,00,53,12.50
2014,07,26,00,54,12.50
2014,07,26,00,55,12.50
2014,07,26,00,56,12.50
2014,07,26,00,57,12.50
2014,07,26,00,58,12.50
2014,07,26,00,59,12.60
2014,07,26,01,00,12.60
2014,07,26,01,01,12.60
2014,07,26,01,02,12.60
2014,07,26,01,03,12.60
2014,07,26,01,04,12.60
2014,07,26,01,05,12.60
2014,07,26,01,06,12.60
2014,07,26,01,07,12.60
2014,07,26,01,08,12.60
2014,07,26,01,09,12.60
2014,07,26,01,10,12.60
2014,07,26,01,11,12.60
2014,07,26,01,12,12.60
2014,07,26,01,13,12.60
2014,07,26,01,14,12.60
2014,07,26,01,15,12.70
2014,07,26,01,16,12.60
2014,07,26,01,17,12.70
2014,07,26,01,18,12.70
2014,07,26,01,19,12.70
2014,07,26,01,20,12.70
2014,07,26,01,21,12.70
2014,07,26,01,22,12.70
2014,07,26,01,23,12.70
2014,07,26,01,24,12.70
2014,07,26,01,25,12.70
2014,07,26,01,26,12.70
2014,07,26,01,27,12.70
2014,07,26,01,28,12.70
2014,07,26,01,29,12.70
2014,07,26,01,30,12.80
2014,07,26,01,31,12.70
2014,07,26,01,32,12.70
2014,07,26,01,33,12.70
2014,07,26,01,34,12.70
2014,07,26,01,35,12.70
2014,07,26,01,36,12.70
2014,07,26,01,37,12.70
2014,07,26,01,38,12.70
2014,07,26,01,39,12.70
2014,07,26,01,40,12.60
2014,07,26,01,41,12.60
2014,07,26,01,42,12.70
2014,07,26,01,43,12.70
2014,07,26,01,44,12.60
2014,07,26,01,45,12.60
2014,07,26,01,46,12.60
2014,07,26,01,47,12.60
2014,07,26,01,48,12.60
2014,07,26,01,49,12.60
2014,07,26,01,50,12.60
2014,07,26,01,51,12.60
2014,07,26,01,52,12.60
2014,07,26,01,53,12.50
2014,07,26,01,54,12.50
2014,07,26,01,55,12.50
2014,07,26,01,56,12.40
2014,07,26,01,57,12.40
2014,07,26,01,58,12.40
2014,07,26,01,59,12.40
2014,07,26,02,00,12.40
2014,07,26,02,01,12.30
2014,07,26,02,02,12.30
2014,07,26,02,03,12.30
2014,07,26,02,04,12.30
2014,07,26,02,05,12.20
2014,07,26,02,06,12.20
2014,07,26,02,07,12.20
2014,07,26,02,08,12.20
2014,07,26,02,09,12.10
2014,07,26,02,10,12.10
2014,07,26,02,11,12.00
2014,07,26,02,12,12.00
2014,07,26,02,13,11.90
2014,07,26,02,14,11.90
2014,07,26,02,15,11.80
2014,07,26,02,16,11.80
2014,07,26,02,17,11.80
2014,07,26,02,18,11.80
2014,07,26,02,19,11.70
2014,07,26,02,20,11.70
2014,07,26,02,21,11.70
2014,07,26,02,22,11.70
2014,07,26,02,23,11.70
2014,07,26,02,24,11.60
2014,07,26,02,25,11.60
2014,07,26,02,26,11.60
2014,07,26,02,27,11.60
2014,07,26,02,28,11.50
2014,07,26,02,29,11.50
2014,07,26,02,30,11.40
2014,07,26,02,31,11.40
2014,07,26,02,32,11.40
2014,07,26,02,33,11.40
2014,07,26,02,34,11.30
2014,07,26,02,35,11.30
2014,07,26,02,36,11.30
2014,07,26,02,37,11.30
2014,07,26,02,38,11.30
2014,07,26,02,39,11.30
2014,07,26,02,40,11.30
2014,07,26,02,41,11.30
2014,07,26,02,42,11.30
2014,07,26,02,43,11.30
2014,07,26,02,44,11.30
2014,07,26,02,45,11.30
2014,07,26,02,46,11.30
2014,07,26,02,47,11.30
2014,07,26,02,48,11.30
2014,07,26,02,49,11.30
2014,07,26,02,50,11.30
2014,07,26,02,51,11.30
2014,07,26,02,52,11.30
2014,07,26,02,53,11.20
2014,07,26,02,54,11.20
2014,07,26,02,55,11.20
2014,07,26,02,56,11.20
2014,07,26,02,57,11.30
2014,07,26,02,58,11.30
2014,07,26,02,59,11.30
2014,07,26,03,00,11.30
2014,07,26,03,01,11.30
2014,07,26,03,02,11.30
2014,07,26,03,03,11.30
2014,07,26,03,04,11.30
2014,07,26,03,05,11.30
2014,07,26,03,06,11.30
2014,07,26,03,07,11.30
2014,07,26,03,08,11.30
2014,07,26,03,09,11.30
2014,07,26,03,10,11.30
2014,07,26,03,11,11.30
2014,07,26,03,12,11.30
2014,07,26,03,13,11.30
2014,07,26,03,14,11.30
2014,07,26,03,15,11.30
2014,07,26,03,16,11.30
2014,07,26,03,17,11.30
2014,07,26,03,18,11.30
2014,07,26,03,19,11.30
2014,07,26,03,20,11.30
2014,07,26,03,21,11.30
2014,07,26,03,22,11.20
2014,07,26,03,23,11.20
2014,07,26,03,24,11.20
2014,07,26,03,25,11.20
2014,07,26,03,26,11.20
2014,07,26,03,27,11.10
2014,07,26,03,28,11.10
2014,07,26,03,29,11.10
2014,07,26,03,30,11.10
2014,07,26,03,31,11.00
2014,07,26,03,32,11.00
2014,07,26,03,33,10.90
2014,07,26,03,34,10.90
2014,07,26,03,35,10.90
2014,07,26,03,36,10.90
2014,07,26,03,37,10.90
2014,07,26,03,38,10.90
2014,07,26,03,39,10.80
2014,07,26,03,40,10.80
2014,07,26,03,41,10.80
2014,07,26,03,42,10.80
2014,07,26,03,43,10.80
2014,07,26,03,44,10.80
2014,07,26,03,45,10.80
2014,07,26,03,46,10.80
2014,07,26,03,47,10.80
2014,07,26,03,48,10.80
2014,07,26,03,49,10.80
2014,07,26,03,50,10.80
2014,07,26,03,51,10.80
2014,07,26,03,52,10.70
2014,07,26,03,53,10.70
2014,07,26,03,54,10.70
2014,07,26,03,55,10.70
2014,07,26,03,56,10.60
2014,07,26,03,57,10.60
2014,07,26,03,58,10.60
2014,07,26,03,59,10.60
2014,07,26,04,00,10.50
2014,07,26,04,01,10.50
2014,07,26,04,02,10.50
2014,07,26,04,03,10.50
2014,07,26,04,04,10.40
2014,07,26,04,05,10.40
2014,07,26,04,06,10.40
2014,07,26,04,07,10.40
2014,07,26,04,08,10.40
2014,07,26,04,09,10.40
2014,07,26,04,10,10.40
2014,07,26,04,11,10.40
2014,07,26,04,12,10.40
2014,07,26,04,13,10.40
2014,07,26,04,14,10.40
2014,07,26,04,15,10.40
2014,07,26,04,16,10.40
2014,07,26,04,17,10.40
2014,07,26,04,18,10.40
2014,07,26,04,19,10.40
2014,07,26,04,20,10.40
2014,07,26,04,21,10.40
2014,07,26,04,22,10.40
2014,07,26,04,23,10.40
2014,07,26,04,24,10.40
2014,07,26,04,25,10.40
2014,07,26,04,26,10.30
2014,07,26,04,27,10.30
2014,07,26,04,28,10.30
2014,07,26,04,29,10.30
2014,07,26,04,30,10.30
2014,07,26,04,31,10.30
2014,07,26,04,32,10.30
2014,07,26,04,33,10.30
2014,07,26,04,34,10.30
2014,07,26,04,35,10.30
2014,07,26,04,36,10.30
2014,07,26,04,37,10.30
2014,07,26,04,38,10.30
2014,07,26,04,39,10.30
2014,07,26,04,40,10.30
2014,07,26,04,41,10.30
2014,07,26,04,42,10.30
2014,07,26,04,43,10.30
2014,07,26,04,44,10.30
2014,07,26,04,45,10.30
2014,07,26,04,46,10.30
2014,07,26,04,47,10.30
2014,07,26,04,48,10.30
2014,07,26,04,49,10.30
2014,07,26,04,50,10.30
2014,07,26,04,51,10.20
2014,07,26,04,52,10.20
2014,07,26,04,53,10.20
2014,07,26,04,54,10.20
2014,07,26,04,55,10.20
2014,07,26,04,56,10.20
2014,07,26,04,57,10.20
2014,07,26,04,58,10.20
2014,07,26,04,59,10.20
2014,07,26,05,00,10.10
2014,07,26,05,01,10.10
2014,07,26,05,02,10.10
2014,07,26,05,03,10.10
2014,07,26,05,04,10.10
2014,07,26,05,05,10.10
2014,07,26,05,06,10.10
2014,07,26,05,07,10.10
2014,07,26,05,08,10.10
2014,07,26,05,09,10.10
2014,07,26,05,10,10.10
2014,07,26,05,11,10.10
2014,07,26,05,12,10.10
2014,07,26,05,13,10.10
2014,07,26,05,14,10.10
2014,07,26,05,15,10.10
2014,07,26,05,16,10.10
2014,07,26,05,17,10.10
2014,07,26,05,18,10.10
2014,07,26,05,19,10.10
2014,07,26,05,20,10.10
2014,07,26,05,21,10.10
2014,07,26,05,22,10.10
2014,07,26,05,23,10.10
2014,07,26,05,24,10.10
2014,07,26,05,25,10.10
2014,07,26,05,26,10.10
2014,07,26,05,27,10.10
2014,07,26,05,28,10.10
2014,07,26,05,29,10.10
2014,07,26,05,30,10.10
2014,07,26,05,31,10.10
2014,07,26,05,32,10.10
2014,07,26,05,33,10.10
2014,07,26,05,34,10.10
2014,07,26,05,35,10.10
2014,07,26,05,36,10.10
2014,07,26,05,37,10.10
2014,07,26,05,38,10.10
2014,07,26,05,39,10.00
2014,07,26,05,40,10.00
2014,07,26,05,41,10.00
2014,07,26,05,42,10.00
2014,07,26,05,43,10.00
2014,07,26,05,44,10.00
2014,07,26,05,45,10.00
2014,07,26,05,46,10.00
2014,07,26,05,47,9.90
2014,07,26,05,48,9.90
2014,07,26,05,49,9.90
2014,07,26,05,50,9.90
2014,07,26,05,51,9.90
2014,07,26,05,52,9.90
2014,07,26,05,53,9.90
2014,07,26,05,54,9.80
2014,07,26,05,55,9.80
2014,07,26,05,56,9.80
2014,07,26,05,57,9.80
2014,07,26,05,58,9.80
2014,07,26,05,59,9.80
2014,07,26,06,00,9.80
2014,07,26,06,01,9.80
2014,07,26,06,02,9.80
2014,07,26,06,03,9.70
2014,07,26,06,04,9.70
2014,07,26,06,05,9.70
2014,07,26,06,06,9.70
2014,07,26,06,07,9.70
2014,07,26,06,08,9.70
2014,07,26,06,09,9.70
2014,07,26,06,10,9.70
2014,07,26,06,11,9.70
2014,07,26,06,12,9.70
2014,07,26,06,13,9.70
2014,07,26,06,14,9.70
2014,07,26,06,15,9.70
2014,07,26,06,16,9.70
2014,07,26,06,17,9.70
2014,07,26,06,18,9.70
2014,07,26,06,19,9.70
2014,07,26,06,20,9.70
2014,07,26,06,21,9.70
2014,07,26,06,22,9.70
2014,07,26,06,23,9.70
2014,07,26,06,24,9.70
2014,07,26,06,25,9.70
2014,07,26,06,26,9.70
2014,07,26,06,27,9.70
2014,07,26,06,28,9.70
2014,07,26,06,29,9.60
2014,07,26,06,30,9.70
2014,07,26,06,31,9.60
2014,07,26,06,32,9.60
2014,07,26,06,33,9.70
2014,07,26,06,34,9.70
2014,07,26,06,35,9.70
2014,07,26,06,36,9.70
2014,07,26,06,37,9.70
2014,07,26,06,38,9.70
2014,07,26,06,39,9.70
2014,07,26,06,40,9.70
2014,07,26,06,41,9.70
2014,07,26,06,42,9.70
2014,07,26,06,43,9.70
2014,07,26,06,44,9.70
2014,07,26,06,45,9.70
2014,07,26,06,46,9.70
2014,07,26,06,47,9.70
2014,07,26,06,48,9.70
2014,07,26,06,49,9.70
2014,07,26,06,50,9.70
2014,07,26,06,51,9.70
2014,07,26,06,52,9.70
2014,07,26,06,53,9.70
2014,07,26,06,54,9.80
2014,07,26,06,55,9.80
2014,07,26,06,56,9.80
2014,07,26,06,57,9.80
2014,07,26,06,58,9.80
2014,07,26,06,59,9.80
2014,07,26,07,00,9.80
2014,07,26,07,01,9.90
2014,07,26,07,02,9.90
2014,07,26,07,03,9.90
2014,07,26,07,04,9.90
2014,07,26,07,05,9.90
2014,07,26,07,06,9.90
2014,07,26,07,07,9.90
2014,07,26,07,08,10.00
2014,07,26,07,09,10.00
2014,07,26,07,10,10.00
2014,07,26,07,11,10.00
2014,07,26,07,12,10.00
2014,07,26,07,13,10.00
2014,07,26,07,14,10.10
2014,07,26,07,15,10.10
2014,07,26,07,16,10.10
2014,07,26,07,17,10.10
2014,07,26,07,18,10.20
2014,07,26,07,19,10.20
2014,07,26,07,20,10.20
2014,07,26,07,21,10.20
2014,07,26,07,22,10.20
2014,07,26,07,23,10.30
2014,07,26,07,24,10.30
2014,07,26,07,25,10.30
2014,07,26,07,26,10.30
2014,07,26,07,27,10.40
2014,07,26,07,28,10.40
2014,07,26,07,29,10.40
2014,07,26,07,30,10.50
2014,07,26,07,31,10.50
2014,07,26,07,32,10.50
2014,07,26,07,33,10.60
2014,07,26,07,34,10.60
2014,07,26,07,35,10.60
2014,07,26,07,36,10.60
2014,07,26,07,37,10.70
2014,07,26,07,38,10.70
2014,07,26,07,39,10.80
2014,07,26,07,40,10.80
2014,07,26,07,41,10.80
2014,07,26,07,42,10.90
2014,07,26,07,43,10.90
2014,07,26,07,44,10.90
2014,07,26,07,45,10.90
2014,07,26,07,46,11.00
2014,07,26,07,47,11.00
2014,07,26,07,48,11.10
2014,07,26,07,49,11.20
2014,07,26,07,50,11.20
2014,07,26,07,51,11.30
2014,07,26,07,52,11.40
2014,07,26,07,53,11.50
2014,07,26,07,54,11.60
2014,07,26,07,55,11.60
2014,07,26,07,56,11.70
2014,07,26,07,57,11.80
2014,07,26,07,58,11.90
2014,07,26,07,59,11.90
2014,07,26,08,00,12.00
2014,07,26,08,01,12.10
2014,07,26,08,02,12.20
2014,07,26,08,03,12.30
2014,07,26,08,04,12.30
2014,07,26,08,05,12.40
2014,07,26,08,06,12.50
2014,07,26,08,07,12.60
2014,07,26,08,08,12.60
2014,07,26,08,09,12.70
2014,07,26,08,10,12.80
2014,07,26,08,11,12.90
2014,07,26,08,12,13.00
2014,07,26,08,13,13.20
2014,07,26,08,14,13.20
2014,07,26,08,15,13.30
2014,07,26,08,16,13.30
2014,07,26,08,17,13.40
2014,07,26,08,18,13.40
2014,07,26,08,19,13.40
2014,07,26,08,20,13.50
2014,07,26,08,21,13.50
2014,07,26,08,22,13.60
2014,07,26,08,23,13.60
2014,07,26,08,24,13.60
2014,07,26,08,25,13.60
2014,07,26,08,26,13.70
2014,07,26,08,27,13.70
2014,07,26,08,28,13.70
2014,07,26,08,29,13.80
2014,07,26,08,30,13.80
2014,07,26,08,31,13.80
2014,07,26,08,32,13.90
2014,07,26,08,33,13.90
2014,07,26,08,34,14.00
2014,07,26,08,35,14.00
2014,07,26,08,36,14.10
2014,07,26,08,37,14.10
2014,07,26,08,38,14.10
2014,07,26,08,39,14.20
2014,07,26,08,40,14.20
2014,07,26,08,41,14.20
2014,07,26,08,42,14.30
2014,07,26,08,43,14.30
2014,07,26,08,44,14.30
2014,07,26,08,45,14.30
2014,07,26,08,46,14.30
2014,07,26,08,47,14.30
2014,07,26,08,48,14.40
2014,07,26,08,49,14.40
2014,07,26,08,50,14.50
2014,07,26,08,51,14.50
2014,07,26,08,52,14.60
2014,07,26,08,53,14.70
2014,07,26,08,54,14.80
2014,07,26,08,55,14.90
2014,07,26,08,56,14.90
2014,07,26,08,57,15.00
2014,07,26,08,58,15.00
2014,07,26,08,59,15.00
2014,07,26,09,00,15.00
2014,07,26,09,01,15.00
2014,07,26,09,02,15.10
2014,07,26,09,03,15.20
2014,07,26,09,04,15.30
2014,07,26,09,05,15.30
2014,07,26,09,06,15.40
2014,07,26,09,07,15.40
2014,07,26,09,08,15.50
2014,07,26,09,09,15.50
2014,07,26,09,10,15.60
2014,07,26,09,11,15.60
2014,07,26,09,12,15.60
2014,07,26,09,13,15.60
2014,07,26,09,14,15.60
2014,07,26,09,15,15.60
2014,07,26,09,16,15.60
2014,07,26,09,17,15.70
2014,07,26,09,18,15.70
2014,07,26,09,19,15.70
2014,07,26,09,20,15.80
2014,07,26,09,21,15.80
2014,07,26,09,22,15.90
2014,07,26,09,23,15.90
2014,07,26,09,24,15.90
2014,07,26,09,25,16.00
2014,07,26,09,26,16.00
2014,07,26,09,27,16.10
2014,07,26,09,28,16.20
2014,07,26,09,29,16.20
2014,07,26,09,30,16.20
2014,07,26,09,31,16.30
2014,07,26,09,32,16.40
2014,07,26,09,33,16.50
2014,07,26,09,34,16.60
2014,07,26,09,35,16.60
2014,07,26,09,36,16.70
2014,07,26,09,37,16.80
2014,07,26,09,38,16.80
2014,07,26,09,39,16.90
2014,07,26,09,40,16.90
2014,07,26,09,41,17.00
2014,07,26,09,42,17.00
2014,07,26,09,43,17.10
2014,07,26,09,44,17.10
2014,07,26,09,45,17.20
2014,07,26,09,46,17.30
2014,07,26,09,47,17.40
2014,07,26,09,48,17.50
2014,07,26,09,49,17.60
2014,07,26,09,50,17.70
2014,07,26,09,51,17.80
2014,07,26,09,52,17.80
2014,07,26,09,53,17.90
2014,07,26,09,54,18.00
2014,07,26,09,55,18.10
2014,07,26,09,56,18.20
2014,07,26,09,57,18.30
2014,07,26,09,58,18.30
2014,07,26,09,59,18.40
2014,07,26,10,00,18.40
2014,07,26,10,01,18.40
2014,07,26,10,02,18.50
2014,07,26,10,03,18.50
2014,07,26,10,04,18.60
2014,07,26,10,05,18.60
2014,07,26,10,06,18.60
2014,07,26,10,07,18.60
2014,07,26,10,08,18.70
2014,07,26,10,09,18.80
2014,07,26,10,10,18.80
2014,07,26,10,11,18.90
2014,07,26,10,12,18.90
2014,07,26,10,13,18.90
2014,07,26,10,14,18.90
2014,07,26,10,15,18.90
2014,07,26,10,16,18.80
2014,07,26,10,17,18.80
2014,07,26,10,18,18.80
2014,07,26,10,19,18.80
2014,07,26,10,20,18.80
2014,07,26,10,21,18.80
2014,07,26,10,22,18.80
2014,07,26,10,23,18.90
2014,07,26,10,24,19.00
2014,07,26,10,25,19.10
2014,07,26,10,26,19.20
2014,07,26,10,27,19.20
2014,07,26,10,28,19.30
2014,07,26,10,29,19.30
2014,07,26,10,30,19.40
2014,07,26,10,31,19.40
2014,07,26,10,32,19.40
2014,07,26,10,33,19.50
2014,07,26,10,34,19.50
2014,07,26,10,35,19.60
2014,07,26,10,36,19.60
2014,07,26,10,37,19.70
2014,07,26,10,38,19.80
2014,07,26,10,39,20.00
2014,07,26,10,40,20.00
2014,07,26,10,41,20.20
2014,07,26,10,42,20.30
2014,07,26,10,43,20.30
2014,07,26,10,44,20.40
2014,07,26,10,45,20.50
2014,07,26,10,46,20.60
2014,07,26,10,47,20.70
2014,07,26,10,48,20.70
2014,07,26,10,49,20.80
2014,07,26,10,50,20.80
2014,07,26,10,51,20.70
2014,07,26,10,52,20.80
2014,07,26,10,53,20.80
2014,07,26,10,54,20.80
2014,07,26,10,55,20.80
2014,07,26,10,56,20.80
2014,07,26,10,57,20.80
2014,07,26,10,58,20.90
2014,07,26,10,59,21.00
2014,07,26,11,00,21.00
2014,07,26,11,01,21.10
2014,07,26,11,02,21.10
2014,07,26,11,03,21.10
2014,07,26,11,04,21.20
2014,07,26,11,05,21.30
2014,07,26,11,06,21.30
2014,07,26,11,07,21.30
2014,07,26,11,08,21.30
2014,07,26,11,09,21.30
2014,07,26,11,10,21.30
2014,07,26,11,11,21.30
2014,07,26,11,12,21.40
2014,07,26,11,13,21.40
2014,07,26,11,14,21.50
2014,07,26,11,15,21.60
2014,07,26,11,16,21.60
2014,07,26,11,17,21.60
2014,07,26,11,18,21.70
2014,07,26,11,19,21.70
2014,07,26,11,20,21.60
2014,07,26,11,21,21.60
2014,07,26,11,22,21.60
2014,07,26,11,23,21.50
2014,07,26,11,24,21.40
2014,07,26,11,25,21.40
2014,07,26,11,26,21.30
2014,07,26,11,27,21.30
2014,07,26,11,28,21.30
2014,07,26,11,29,21.40
2014,07,26,11,30,21.50
2014,07,26,11,31,21.60
2014,07,26,11,32,21.80
2014,07,26,11,33,21.90
2014,07,26,11,34,22.00
2014,07,26,11,35,22.20
2014,07,26,11,36,22.30
2014,07,26,11,37,22.30
2014,07,26,11,38,22.40
2014,07,26,11,39,22.50
2014,07,26,11,40,22.40
2014,07,26,11,41,22.50
2014,07,26,11,42,22.40
2014,07,26,11,43,22.40
2014,07,26,11,44,22.30
2014,07,26,11,45,22.20
2014,07,26,11,46,22.10
2014,07,26,11,47,22.00
2014,07,26,11,48,21.80
2014,07,26,11,49,21.70
2014,07,26,11,50,21.60
2014,07,26,11,51,21.40
2014,07,26,11,52,21.30
2014,07,26,11,53,21.30
2014,07,26,11,54,21.20
2014,07,26,11,55,21.20
2014,07,26,11,56,21.10
2014,07,26,11,57,21.10
2014,07,26,11,58,21.20
2014,07,26,11,59,21.30
2014,07,26,12,00,21.50
2014,07,26,12,01,21.60
2014,07,26,12,02,21.60
2014,07,26,12,03,21.70
2014,07,26,12,04,21.70
2014,07,26,12,05,21.70
2014,07,26,12,06,21.80
2014,07,26,12,07,21.80
2014,07,26,12,08,21.80
2014,07,26,12,09,21.80
2014,07,26,12,10,21.80
2014,07,26,12,11,21.80
2014,07,26,12,12,21.80
2014,07,26,12,13,21.80
2014,07,26,12,14,21.80
2014,07,26,12,15,21.80
2014,07,26,12,16,21.80
2014,07,26,12,17,21.80
2014,07,26,12,18,21.80
2014,07,26,12,19,21.80
2014,07,26,12,20,21.80
2014,07,26,12,21,21.90
2014,07,26,12,22,22.00
2014,07,26,12,23,22.10
2014,07,26,12,24,22.30
2014,07,26,12,25,22.40
2014,07,26,12,26,22.50
2014,07,26,12,27,22.60
2014,07,26,12,28,22.60
2014,07,26,12,29,22.50
2014,07,26,12,30,22.50
2014,07,26,12,31,22.50
2014,07,26,12,32,22.50
2014,07,26,12,33,22.50
2014,07,26,12,34,22.60
2014,07,26,12,35,22.70
2014,07,26,12,36,22.80
2014,07,26,12,37,22.80
2014,07,26,12,38,22.80
2014,07,26,12,39,22.90
2014,07,26,12,40,22.90
2014,07,26,12,41,23.00
2014,07,26,12,42,23.10
2014,07,26,12,43,23.30
2014,07,26,12,44,23.40
2014,07,26,12,45,23.50
2014,07,26,12,46,23.60
2014,07,26,12,47,23.70
2014,07,26,12,48,23.80
2014,07,26,12,49,23.90
2014,07,26,12,50,24.10
2014,07,26,12,51,24.10
2014,07,26,12,52,24.10
2014,07,26,12,53,24.10
2014,07,26,12,54,24.10
2014,07,26,12,55,23.90
2014,07,26,12,56,23.70
2014,07,26,12,57,23.50
2014,07,26,12,58,23.20
2014,07,26,12,59,23.00
2014,07,26,13,00,22.90
2014,07,26,13,01,22.90
2014,07,26,13,02,22.80
2014,07,26,13,03,22.80
2014,07,26,13,04,22.80
2014,07,26,13,05,22.80
2014,07,26,13,06,22.80
2014,07,26,13,07,22.90
2014,07,26,13,08,22.90
2014,07,26,13,09,23.00
2014,07,26,13,10,23.10
2014,07,26,13,11,23.10
2014,07,26,13,12,23.20
2014,07,26,13,13,23.30
2014,07,26,13,14,23.30
2014,07,26,13,15,23.30
2014,07,26,13,16,23.30
2014,07,26,13,17,23.30
2014,07,26,13,18,23.30
2014,07,26,13,19,23.40
2014,07,26,13,20,23.40
2014,07,26,13,21,23.50
2014,07,26,13,22,23.50
2014,07,26,13,23,23.60
2014,07,26,13,24,23.70
2014,07,26,13,25,23.80
2014,07,26,13,26,23.90
2014,07,26,13,27,24.00
2014,07,26,13,28,24.10
2014,07,26,13,29,24.20
2014,07,26,13,30,24.40
2014,07,26,13,31,24.50
2014,07,26,13,32,24.60
2014,07,26,13,33,24.60
2014,07,26,13,34,24.50
2014,07,26,13,35,24.40
2014,07,26,13,36,24.30
2014,07,26,13,37,24.20
2014,07,26,13,38,24.10
2014,07,26,13,39,23.90
2014,07,26,13,40,23.80
2014,07,26,13,41,23.70
2014,07,26,13,42,23.70
2014,07,26,13,43,23.70
2014,07,26,13,44,23.80
2014,07,26,13,45,23.80
2014,07,26,13,46,23.80
2014,07,26,13,47,23.80
2014,07,26,13,48,23.80
2014,07,26,13,49,23.70
2014,07,26,13,50,23.70
2014,07,26,13,51,23.70
2014,07,26,13,52,23.70
2014,07,26,13,53,23.70
2014,07,26,13,54,23.60
2014,07,26,13,55,23.70
2014,07,26,13,56,23.80
2014,07,26,13,57,24.00
2014,07,26,13,58,24.10
2014,07,26,13,59,24.30
2014,07,26,14,00,24.40
2014,07,26,14,01,24.50
2014,07,26,14,02,24.60
2014,07,26,14,03,24.70
2014,07,26,14,04,24.80
2014,07,26,14,05,24.90
2014,07,26,14,06,24.90
2014,07,26,14,07,24.90
2014,07,26,14,08,24.90
2014,07,26,14,09,25.00
2014,07,26,14,10,25.10
2014,07,26,14,11,25.20
2014,07,26,14,12,25.20
2014,07,26,14,13,25.10
2014,07,26,14,14,25.10
2014,07,26,14,15,25.00
2014,07,26,14,16,24.90
2014,07,26,14,17,24.70
2014,07,26,14,18,24.60
2014,07,26,14,19,24.40
2014,07,26,14,20,24.40
2014,07,26,14,21,24.30
2014,07,26,14,22,24.40
2014,07,26,14,23,24.40
2014,07,26,14,24,24.40
2014,07,26,14,25,24.40
2014,07,26,14,26,24.40
2014,07,26,14,27,24.50
2014,07,26,14,28,24.60
2014,07,26,14,29,24.70
2014,07,26,14,30,24.70
2014,07,26,14,31,24.70
2014,07,26,14,32,24.70
2014,07,26,14,33,24.70
2014,07,26,14,34,24.70
2014,07,26,14,35,24.70
2014,07,26,14,36,24.60
2014,07,26,14,37,24.60
2014,07,26,14,38,24.40
2014,07,26,14,39,24.30
2014,07,26,14,40,24.10
2014,07,26,14,41,23.90
2014,07,26,14,42,23.80
2014,07,26,14,43,23.60
2014,07,26,14,44,23.50
2014,07,26,14,45,23.40
2014,07,26,14,46,23.30
2014,07,26,14,47,23.20
2014,07,26,14,48,23.20
2014,07,26,14,49,23.20
2014,07,26,14,50,23.20
2014,07,26,14,51,23.20
2014,07,26,14,52,23.20
2014,07,26,14,53,23.20
2014,07,26,14,54,23.30
2014,07,26,14,55,23.30
2014,07,26,14,56,23.30
2014,07,26,14,57,23.30
2014,07,26,14,58,23.30
2014,07,26,14,59,23.40
2014,07,26,15,00,23.40
2014,07,26,15,01,23.40
2014,07,26,15,02,23.40
2014,07,26,15,03,23.40
2014,07,26,15,04,23.40
2014,07,26,15,05,23.40
2014,07,26,15,06,23.40
2014,07,26,15,07,23.50
2014,07,26,15,08,23.60
2014,07,26,15,09,23.70
2014,07,26,15,10,23.80
2014,07,26,15,11,23.90
2014,07,26,15,12,23.90
2014,07,26,15,13,24.00
2014,07,26,15,14,24.10
2014,07,26,15,15,24.10
2014,07,26,15,16,24.10
2014,07,26,15,17,24.10
2014,07,26,15,18,24.20
2014,07,26,15,19,24.20
2014,07,26,15,20,24.30
2014,07,26,15,21,24.30
2014,07,26,15,22,24.40
2014,07,26,15,23,24.40
2014,07,26,15,24,24.50
2014,07,26,15,25,24.50
2014,07,26,15,26,24.50
2014,07,26,15,27,24.50
2014,07,26,15,28,24.40
2014,07,26,15,29,24.30
2014,07,26,15,30,24.20
2014,07,26,15,31,24.10
2014,07,26,15,32,24.00
2014,07,26,15,33,24.00
2014,07,26,15,34,23.90
2014,07,26,15,35,23.80
2014,07,26,15,36,23.80
2014,07,26,15,37,23.80
2014,07,26,15,38,23.70
2014,07,26,15,39,23.60
2014,07,26,15,40,23.60
2014,07,26,15,41,23.60
2014,07,26,15,42,23.60
2014,07,26,15,43,23.60
2014,07,26,15,44,23.60
2014,07,26,15,45,23.60
2014,07,26,15,46,23.60
2014,07,26,15,47,23.70
2014,07,26,15,48,23.70
2014,07,26,15,49,23.80
2014,07,26,15,50,23.80
2014,07,26,15,51,23.80
2014,07,26,15,52,23.80
2014,07,26,15,53,23.70
2014,07,26,15,54,23.70
2014,07,26,15,55,23.80
2014,07,26,15,56,23.80
2014,07,26,15,57,23.90
2014,07,26,15,58,23.90
2014,07,26,15,59,24.00
2014,07,26,16,00,24.00
2014,07,26,16,01,24.00
2014,07,26,16,02,24.00
2014,07,26,16,03,24.00
2014,07,26,16,04,23.90
2014,07,26,16,05,23.90
2014,07,26,16,06,23.90
2014,07,26,16,07,24.00
2014,07,26,16,08,24.00
2014,07,26,16,09,24.00
2014,07,26,16,10,24.00
2014,07,26,16,11,24.00
2014,07,26,16,12,23.90
2014,07,26,16,13,23.90
2014,07,26,16,14,23.90
2014,07,26,16,15,23.90
2014,07,26,16,16,23.80
2014,07,26,16,17,23.80
2014,07,26,16,18,23.80
2014,07,26,16,19,23.70
2014,07,26,16,20,23.70
2014,07,26,16,21,23.70
2014,07,26,16,22,23.80
2014,07,26,16,23,23.80
2014,07,26,16,24,23.80
2014,07,26,16,25,23.80
2014,07,26,16,26,23.80
2014,07,26,16,27,23.80
2014,07,26,16,28,23.70
2014,07,26,16,29,23.70
2014,07,26,16,30,23.70
2014,07,26,16,31,23.70
2014,07,26,16,32,23.70
2014,07,26,16,33,23.70
2014,07,26,16,34,23.70
2014,07,26,16,35,23.80
2014,07,26,16,36,23.80
2014,07,26,16,37,23.90
2014,07,26,16,38,23.90
2014,07,26,16,39,23.90
2014,07,26,16,40,23.90
2014,07,26,16,41,23.90
2014,07,26,16,42,23.90
2014,07,26,16,43,23.90
2014,07,26,16,44,23.90
2014,07,26,16,45,24.00
2014,07,26,16,46,24.00
2014,07,26,16,47,24.10
2014,07,26,16,48,24.10
2014,07,26,16,49,24.10
2014,07,26,16,50,24.10
2014,07,26,16,51,24.20
2014,07,26,16,52,24.20
2014,07,26,16,53,24.20
2014,07,26,16,54,24.20
2014,07,26,16,55,24.20
2014,07,26,16,56,24.20
2014,07,26,16,57,24.20
2014,07,26,16,58,24.10
2014,07,26,16,59,24.10
2014,07,26,17,00,24.10
2014,07,26,17,01,24.10
2014,07,26,17,02,24.10
2014,07,26,17,03,24.10
2014,07,26,17,04,24.10
2014,07,26,17,05,24.10
2014,07,26,17,06,24.10
2014,07,26,17,07,24.20
2014,07,26,17,08,24.20
2014,07,26,17,09,24.20
2014,07,26,17,10,24.30
2014,07,26,17,11,24.40
2014,07,26,17,12,24.40
2014,07,26,17,13,24.40
2014,07,26,17,14,24.40
2014,07,26,17,15,24.40
2014,07,26,17,16,24.40
2014,07,26,17,17,24.40
2014,07,26,17,18,24.40
2014,07,26,17,19,24.40
2014,07,26,17,20,24.40
2014,07,26,17,21,24.50
2014,07,26,17,22,24.50